Location: York
(31.8935°S, 116.7682°E)
Time: 01:19:14
(UTC+08:00)

DX 1 - Pass Details

Date: 01 August 2021
Orbit: 618 x 631 km, 98.4° (Epoch: 23 September)

Event Time Altitude Azimuth Distance (km) Brightness Sun altitude
Rises 19:13:10 0° 10° (N) 2,890 ? -20.5°
Reaches altitude 10° 19:15:21 10° 8° (N) 1,990 ? -21.0°
Maximum altitude 19:19:40 75° 283° (WNW) 653 ? -21.9°
Drops below altitude 10° 19:24:03 10° 196° (SSW) 2,012 ? -22.8°
Sets 19:26:16 0° 194° (SSW) 2,925 ? -23.3°
